When you browse on this site, cookies collect data to enhance your experience and personalize the content and advertising you see.
Visit our Privacy Policy to learn more. By continuing to use the site, you agree to this use of cookies and data.
  • In Czech Republic
  • List of Countries
  • For 7 days
  • Water Temperature
  • Weather Map
  • Weather Widgets
  • user-avatar
    Login

    Hourly Weather San Miguel de Tucumán

    Today, 9 April, Thursday

    Time Temperature Precipitation Wind Pressure Humidity
    00:00 +15°C° 0 mm 0 mps 724 mmHg 76%
    01:00 +14°C° 0 mm 0 mps 723 mmHg 77%
    02:00 +15°C° 0 mm 0 mps 723 mmHg 76%
    03:00 +15°C° 0 mm 0 mps 723 mmHg 76%
    04:00 +14°C° 0 mm 0 mps 723 mmHg 77%
    05:00 +14°C° 0 mm 0 mps 723 mmHg 77%
    06:00 +15°C° 0 mm 0 mps 723 mmHg 76%
    07:00 +15°C° 0 mm 0 mps 724 mmHg 75%
    08:00 +16°C° 0 mm 0 mps 724 mmHg 74%
    09:00 +19°C° 0 mm 1 mps 724 mmHg 70%
    10:00 +20°C° 0 mm 1 mps 724 mmHg 66%
    11:00 +21°C° 0 mm 1 mps 724 mmHg 62%
    12:00 +21°C° 0 mm 1 mps 724 mmHg 61%
    13:00 +22°C° 0 mm 1 mps 723 mmHg 60%
    14:00 +22°C° 0 mm 1 mps 723 mmHg 60%
    15:00 +22°C° 0 mm 1 mps 722 mmHg 62%
    16:00 +22°C° 0 mm 1 mps 722 mmHg 64%
    17:00 +22°C° 0 mm 1 mps 721 mmHg 66%
    18:00 +20°C° 0 mm 1 mps 722 mmHg 70%
    19:00 +19°C° 0 mm 1 mps 722 mmHg 74%
    20:00 +18°C° 0 mm 1 mps 723 mmHg 79%
    21:00 +16°C° 0 mm 1 mps 723 mmHg 80%
    22:00 +16°C° 0 mm 1 mps 723 mmHg 81%
    23:00 +16°C° 0 mm 1 mps 723 mmHg 81%

    Tomorrow, 10 April, Friday

    Time Temperature Precipitation Wind Pressure Humidity
    00:00 +15°C° 0 mm 1 mps 723 mmHg 83%
    01:00 +15°C° 0 mm 1 mps 722 mmHg 85%
    02:00 +14°C° 0 mm 1 mps 722 mmHg 87%
    03:00 +13°C° 0 mm 0 mps 722 mmHg 88%
    04:00 +13°C° 0 mm 0 mps 722 mmHg 89%
    05:00 +12°C° 0 mm 0 mps 721 mmHg 90%
    06:00 +14°C° 0 mm 0 mps 722 mmHg 86%
    07:00 +15°C° 0 mm 0 mps 722 mmHg 82%
    08:00 +16°C° 0 mm 0 mps 723 mmHg 78%
    09:00 +20°C° 0 mm 1 mps 723 mmHg 72%
    10:00 +22°C° 0 mm 1 mps 723 mmHg 65%
    11:00 +24°C° 0 mm 1 mps 723 mmHg 59%
    12:00 +24°C° 0 mm 2 mps 722 mmHg 58%
    13:00 +25°C° 0 mm 2 mps 721 mmHg 57%
    14:00 +25°C° 0 mm 2 mps 720 mmHg 56%
    15:00 +25°C° 0 mm 2 mps 720 mmHg 59%
    16:00 +24°C° 0 mm 2 mps 720 mmHg 63%
    17:00 +24°C° 0 mm 1 mps 720 mmHg 66%
    18:00 +22°C° 0 mm 1 mps 720 mmHg 69%
    19:00 +21°C° 0 mm 1 mps 720 mmHg 72%
    20:00 +20°C° 0 mm 1 mps 720 mmHg 74%
    21:00 +19°C° 0 mm 1 mps 720 mmHg 77%
    22:00 +18°C° 0 mm 1 mps 720 mmHg 79%
    23:00 +16°C° 0 mm 1 mps 720 mmHg 82%

    Day after tomorrow, 11 April, Saturday

    Time Temperature Precipitation Wind Pressure Humidity
    00:00 +16°C° 0 mm 1 mps 720 mmHg 84%
    01:00 +16°C° 0 mm 1 mps 720 mmHg 85%
    02:00 +15°C° 0 mm 1 mps 719 mmHg 87%
    03:00 +15°C° 0 mm 1 mps 719 mmHg 87%
    04:00 +15°C° 0 mm 1 mps 719 mmHg 87%
    05:00 +15°C° 0 mm 1 mps 719 mmHg 87%
    06:00 +16°C° 0 mm 1 mps 719 mmHg 84%
    07:00 +18°C° 0 mm 1 mps 719 mmHg 81%
    08:00 +19°C° 0 mm 1 mps 720 mmHg 78%
    09:00 +21°C° 0 mm 1 mps 720 mmHg 72%
    10:00 +23°C° 0 mm 1 mps 720 mmHg 66%
    11:00 +25°C° 0 mm 1 mps 720 mmHg 59%
    12:00 +26°C° 0 mm 2 mps 719 mmHg 58%
    13:00 +26°C° 0 mm 2 mps 718 mmHg 57%
    14:00 +27°C° 0 mm 2 mps 718 mmHg 56%
    15:00 +26°C° 0 mm 2 mps 718 mmHg 59%
    16:00 +26°C° 0 mm 2 mps 717 mmHg 62%
    17:00 +25°C° 0 mm 2 mps 717 mmHg 65%
    18:00 +24°C° 0 mm 1 mps 718 mmHg 67%
    19:00 +23°C° 0 mm 1 mps 718 mmHg 69%
    20:00 +22°C° 0 mm 1 mps 718 mmHg 71%
    21:00 +21°C° 0 mm 1 mps 718 mmHg 75%
    22:00 +21°C° 0 mm 1 mps 719 mmHg 78%
    23:00 +20°C° 0 mm 1 mps 719 mmHg 81%

    12 April, Sunday

    Time Temperature Precipitation Wind Pressure Humidity
    00:00 +19°C° 0 mm 1 mps 718 mmHg 82%
    01:00 +19°C° 0 mm 1 mps 718 mmHg 83%
    02:00 +16°C° 0 mm 0 mps 718 mmHg 84%
    03:00 +16°C° 0 mm 0 mps 717 mmHg 85%
    04:00 +16°C° 0 mm 0 mps 717 mmHg 86%
    05:00 +15°C° 0 mm 0 mps 717 mmHg 86%
    06:00 +16°C° 0 mm 0 mps 717 mmHg 84%
    07:00 +17°C° 0 mm 0 mps 717 mmHg 81%
    08:00 +18°C° 0 mm 0 mps 718 mmHg 78%
    09:00 +22°C° 0 mm 1 mps 718 mmHg 72%
    10:00 +24°C° 0 mm 1 mps 717 mmHg 67%
    11:00 +25°C° 0 mm 1 mps 717 mmHg 61%
    12:00 +26°C° 0 mm 1 mps 717 mmHg 59%
    13:00 +27°C° 0 mm 1 mps 716 mmHg 57%
    14:00 +28°C° 0 mm 1 mps 715 mmHg 55%
    15:00 +27°C° 0 mm 1 mps 715 mmHg 59%
    16:00 +27°C° 0 mm 2 mps 715 mmHg 63%
    17:00 +26°C° 0 mm 2 mps 714 mmHg 67%
    18:00 +25°C° 0 mm 1 mps 715 mmHg 71%
    19:00 +24°C° 0 mm 1 mps 716 mmHg 74%
    20:00 +22°C° 0 mm 1 mps 717 mmHg 77%
    21:00 +22°C° 0 mm 1 mps 717 mmHg 78%
    22:00 +21°C° 0 mm 1 mps 717 mmHg 79%
    23:00 +21°C° 0 mm 1 mps 717 mmHg 80%

    13 April, Monday

    Time Temperature Precipitation Wind Pressure Humidity
    00:00 +20°C° 0 mm 1 mps 717 mmHg 81%
    01:00 +20°C° 0 mm 1 mps 717 mmHg 82%
    02:00 +20°C° 0 mm 1 mps 717 mmHg 83%
    03:00 +19°C° 0 mm 1 mps 718 mmHg 84%
    04:00 +19°C° 0 mm 1 mps 718 mmHg 84%
    05:00 +19°C° 0 mm 1 mps 718 mmHg 85%
    06:00 +18°C° 0.1 mm 2 mps 719 mmHg 85%
    07:00 +19°C° 0.1 mm 2 mps 720 mmHg 86%
    08:00 +19°C° 0.1 mm 2 mps 720 mmHg 86%
    09:00 +21°C° 0 mm 2 mps 721 mmHg 78%
    10:00 +23°C° 0 mm 2 mps 721 mmHg 70%
    11:00 +25°C° 0 mm 3 mps 721 mmHg 62%
    12:00 +25°C° 0 mm 3 mps 721 mmHg 61%
    13:00 +26°C° 0 mm 3 mps 720 mmHg 59%
    14:00 +27°C° 0 mm 3 mps 720 mmHg 58%
    15:00 +26°C° 0.1 mm 2 mps 719 mmHg 61%
    16:00 +26°C° 0.1 mm 2 mps 719 mmHg 65%
    17:00 +25°C° 0.1 mm 1 mps 719 mmHg 68%
    18:00 +24°C° 0 mm 1 mps 719 mmHg 73%
    19:00 +22°C° 0 mm 1 mps 720 mmHg 77%
    20:00 +20°C° 0 mm 1 mps 720 mmHg 82%
    21:00 +20°C° 0 mm 1 mps 721 mmHg 81%
    22:00 +20°C° 0 mm 1 mps 721 mmHg 81%
    23:00 +20°C° 0 mm 1 mps 722 mmHg 80%

    14 April, Tuesday

    Time Temperature Precipitation Wind Pressure Humidity
    00:00 +20°C° 0 mm 1 mps 722 mmHg 80%
    01:00 +20°C° 0 mm 1 mps 722 mmHg 80%
    02:00 +20°C° 0 mm 1 mps 722 mmHg 80%
    03:00 +20°C° 0 mm 1 mps 722 mmHg 81%
    04:00 +20°C° 0 mm 1 mps 722 mmHg 82%
    05:00 +20°C° 0 mm 1 mps 722 mmHg 83%
    06:00 +20°C° 0 mm 1 mps 723 mmHg 84%
    07:00 +19°C° 0 mm 1 mps 723 mmHg 84%
    08:00 +19°C° 0 mm 1 mps 724 mmHg 84%
    09:00 +20°C° 0 mm 1 mps 724 mmHg 82%
    10:00 +20°C° 0 mm 1 mps 724 mmHg 80%
    11:00 +21°C° 0 mm 1 mps 724 mmHg 78%
    12:00 +20°C° 0.1 mm 1 mps 723 mmHg 79%
    13:00 +20°C° 0.1 mm 1 mps 723 mmHg 81%
    14:00 +19°C° 0.1 mm 1 mps 722 mmHg 83%
    15:00 +19°C° 0 mm 1 mps 722 mmHg 82%
    16:00 +19°C° 0 mm 1 mps 722 mmHg 81%
    17:00 +17°C° 0 mm 0 mps 722 mmHg 80%
    18:00 +17°C° 0 mm 0 mps 722 mmHg 80%
    19:00 +17°C° 0 mm 0 mps 722 mmHg 79%
    20:00 +17°C° 0 mm 0 mps 723 mmHg 79%
    21:00 +16°C° 0 mm 0 mps 723 mmHg 82%
    22:00 +16°C° 0 mm 1 mps 723 mmHg 85%
    23:00 +16°C° 0 mm 1 mps 723 mmHg 88%
    Show more